sat.trackr.live / text

‹ back to catalog

STARLINK-36459

NORAD 67427 · 2026-005Z

PAYLOAD ACTIVE UNKNOWN

§ Identity

Operator
Country
US
Launch date
2026-01-12
Launch site
AFETR
Launch vehicle
Mass (kg)
RCS (m²)

Purposes: comms

External: N2YO · Heavens-Above · Gunter

§ Orbital elements

Epoch: 2026-09-19T07:14:57.389568Z

Period
94.27 min
Inclination
43.0008°
Eccentricity
0.0001420
Mean motion
15.27585633 rev/d
Perigee alt
482.1 km
Apogee alt
484.0 km
Semi-major
6,861.2 km
B*
3.5783e-4
RAAN
224.8506°
Arg perigee
271.3409°
Mean anomaly
88.7280°
Rev number
3,829

§ Raw data

STARLINK-364591 67427U 26005Z   26262.30205312  .00009599  00000+0  35783-3 0  99932 67427  43.0008 224.8506 0001420 271.3409  88.7280 15.27585633 38293

JSON: /api/v1/satellites/67427 · /tle

For live sub-satellite position, see the globe view (requires WebGL).

§ Visibility from observer

Set your observer location to see the next 7 days of passes ≥ 10°. The values pass through the URL so the page stays shareable.

No JS? Fill the form by hand. The geolocation button needs JavaScript.